249  
ASUS43 KGLD 241508  
RWRGLD  
 
GOODLAND FORECAST AREA HOURLY WEATHER ROUNDUP  
NATIONAL WEATHER SERVICE GOODLAND KS  
900 AM MDT SUN MAR 24 2019  
   
..OFFICIAL OBSERVATIONS
 
 
 
CITY SKY/WX TMP DP RH WIND PRES REMARKS
 
GOODLAND KS CLOUDY 40 38 93 NW10 30.08R  
HILL CITY KS PTSUNNY 47 41 80 N16 30.06R  
IMPERIAL NEB CLOUDY 43 38 82 NW7 30.08R  
MCCOOK NEB CLOUDY 44 40 85 NW7 30.08R  
AKRON CO SUNNY 40 37 89 W6 30.08R  
BURLINGTON CO CLOUDY 43 39 86 NW6 30.09R  
LIMON CO SUNNY 36 34 92 N5 30.10R  

 
   
..UNOFFICIAL OBSERVATIONS
 
 
 
CITY SKY/WX TMP DP RH WIND PRES REMARKS
 
COLBY KS PTSUNNY 41 41 100 NW10 30.09R  
SHARON SPRINGS N/A 43 37 80 NW12G18 N/A  
KIT CARSON CO N/A 44 37 77 CALM N/A  
YUMA CO CLOUDY 37 36 93 NW5 30.09  

 
 
 
CLICK HERE TO GO TO PREVIOUS BULLETINS.

The Nexlab KS Page
The Nexlab CO Page
The Nexlab NE Page Main Text Page